RYR70PH EDDK-LIME

Flight info

Callsign RYR70PH
Flight time 1h 7m
Altitude 36000
Route KUMIK6D KUMIK Y854 BOMBI DCT GIGET DCT ABUKA DCT KRH DCT NATOR/N0435F370 DCT TRA DCT RIPUS DCT GERSA DCT SOSON DCT ODINA
Aircraft B738/M-SDE2E3FGHIRWXY/LB1

Departure

Time 2026-05-03 22:29
Airport Cologne Bonn Airport (EDDK)

Arrival

Time 2026-05-03 23:37
Airport Il Caravaggio International Airport (LIME)
Time Latitude Longitude Altitude Speed Heading
2026-05-03 22:09 50.88108 7.12096 229 ft 0 kts 219°
2026-05-03 22:21 50.88122 7.12113 233 ft 4 kts 219°
2026-05-03 22:21 50.88141 7.12137 230 ft 4 kts 211°
2026-05-03 22:21 50.88160 7.12145 230 ft 4 kts 143°
2026-05-03 22:22 50.88175 7.12112 231 ft 4 kts 117°
2026-05-03 22:22 50.88183 7.12089 230 ft 0 kts 126°
2026-05-03 22:26 50.88182 7.12091 229 ft 1 kts 126°
2026-05-03 22:26 50.88170 7.12120 230 ft 4 kts 123°
2026-05-03 22:26 50.88152 7.12164 229 ft 5 kts 124°
2026-05-03 22:26 50.88126 7.12217 229 ft 9 kts 129°
2026-05-03 22:27 50.88101 7.12309 230 ft 9 kts 109°
2026-05-03 22:27 50.88066 7.12394 229 ft 9 kts 128°
2026-05-03 22:27 50.88014 7.12479 229 ft 12 kts 137°
2026-05-03 22:27 50.87951 7.12566 229 ft 12 kts 130°
2026-05-03 22:28 50.87961 7.12674 231 ft 11 kts 44°
2026-05-03 22:28 50.88000 7.12772 234 ft 10 kts 73°
2026-05-03 22:28 50.88008 7.12884 236 ft 10 kts 93°
2026-05-03 22:28 50.87987 7.12987 238 ft 10 kts 127°
2026-05-03 22:29 50.87921 7.13088 240 ft 30 kts 139°
2026-05-03 22:29 50.87585 7.13565 246 ft 103 kts 136°
2026-05-03 22:29 50.86890 7.14559 287 ft 163 kts 137°
2026-05-03 22:29 50.86037 7.15855 947 ft 178 kts 135°
2026-05-03 22:30 50.85095 7.17360 1495 ft 206 kts 137°
2026-05-03 22:30 50.84057 7.19100 1951 ft 226 kts 136°
2026-05-03 22:30 50.82912 7.20890 2503 ft 236 kts 143°
2026-05-03 22:30 50.81716 7.22703 3088 ft 246 kts 126°
2026-05-03 22:31 50.81144 7.25369 3439 ft 271 kts 98°
2026-05-03 22:31 50.80938 7.28387 3995 ft 280 kts 97°
2026-05-03 22:31 50.80730 7.31464 4744 ft 282 kts 97°
2026-05-03 22:31 50.80506 7.34545 5485 ft 284 kts 98°
2026-05-03 22:32 50.80261 7.37668 6183 ft 288 kts 99°
2026-05-03 22:32 50.80001 7.40817 6899 ft 290 kts 99°
2026-05-03 22:32 50.79730 7.43994 7630 ft 293 kts 100°
2026-05-03 22:32 50.79450 7.47209 8354 ft 297 kts 100°
2026-05-03 22:33 50.79165 7.50460 9124 ft 300 kts 101°
2026-05-03 22:33 50.78876 7.53746 9841 ft 305 kts 101°
2026-05-03 22:33 50.78581 7.57099 10388 ft 315 kts 101°
2026-05-03 22:33 50.77945 7.60495 10524 ft 331 kts 124°
2026-05-03 22:34 50.76638 7.63636 10901 ft 344 kts 128°
2026-05-03 22:34 50.75290 7.66732 11493 ft 350 kts 128°
2026-05-03 22:34 50.73888 7.69965 12236 ft 354 kts 128°
2026-05-03 22:34 50.72515 7.73147 12994 ft 357 kts 128°
2026-05-03 22:35 50.71116 7.76403 13758 ft 361 kts 128°
2026-05-03 22:35 50.69682 7.79744 14446 ft 365 kts 128°
2026-05-03 22:35 50.68268 7.83040 15132 ft 370 kts 128°
2026-05-03 22:35 50.66801 7.86461 15837 ft 374 kts 128°
2026-05-03 22:36 50.65332 7.89881 16461 ft 379 kts 128°
2026-05-03 22:36 50.63851 7.93327 16583 ft 379 kts 128°
2026-05-03 22:36 50.62378 7.96755 16595 ft 378 kts 128°
2026-05-03 22:36 50.60902 8.00182 16611 ft 379 kts 128°
2026-05-03 22:37 50.59530 8.03361 16603 ft 380 kts 128°
2026-05-03 22:37 50.58048 8.06793 16608 ft 380 kts 128°
2026-05-03 22:37 50.56558 8.10240 16631 ft 382 kts 128°
2026-05-03 22:37 50.55051 8.13715 17158 ft 387 kts 129°
2026-05-03 22:38 50.53537 8.17203 18019 ft 386 kts 129°
2026-05-03 22:38 50.52019 8.20697 18705 ft 388 kts 129°
2026-05-03 22:38 50.50490 8.24212 19291 ft 392 kts 129°
2026-05-03 22:38 50.48961 8.27720 19867 ft 396 kts 129°
2026-05-03 22:39 50.47377 8.31349 20475 ft 399 kts 129°
2026-05-03 22:39 50.45803 8.34952 21073 ft 402 kts 130°
2026-05-03 22:39 50.44218 8.38575 21692 ft 404 kts 130°
2026-05-03 22:39 50.42621 8.42225 22294 ft 406 kts 130°
2026-05-03 22:40 50.41013 8.45892 22852 ft 410 kts 130°
2026-05-03 22:40 50.39370 8.49563 23383 ft 412 kts 134°
2026-05-03 22:40 50.37432 8.52824 23860 ft 407 kts 144°
2026-05-03 22:40 50.35193 8.55493 24343 ft 402 kts 154°
2026-05-03 22:41 50.32750 8.57608 24817 ft 401 kts 158°
2026-05-03 22:41 50.30272 8.59634 25232 ft 405 kts 158°
2026-05-03 22:41 50.27761 8.61680 25653 ft 408 kts 158°
2026-05-03 22:41 50.25241 8.63750 26100 ft 410 kts 157°
2026-05-03 22:42 50.22714 8.65844 26534 ft 412 kts 157°
2026-05-03 22:42 50.20101 8.67639 26927 ft 409 kts 167°
2026-05-03 22:42 50.17333 8.68593 27348 ft 406 kts 176°
2026-05-03 22:42 50.14528 8.68840 27758 ft 403 kts 184°
2026-05-03 22:43 50.11713 8.68765 28166 ft 406 kts 184°
2026-05-03 22:43 50.08879 8.68693 28523 ft 409 kts 184°
2026-05-03 22:43 50.06020 8.68631 28861 ft 412 kts 184°
2026-05-03 22:43 50.03140 8.68580 29223 ft 415 kts 184°
2026-05-03 22:44 50.00248 8.68537 29609 ft 417 kts 184°
2026-05-03 22:44 49.97349 8.68499 29963 ft 419 kts 184°
2026-05-03 22:44 49.94421 8.68464 30269 ft 421 kts 184°
2026-05-03 22:44 49.91443 8.68429 30544 ft 423 kts 184°
2026-05-03 22:45 49.88534 8.68396 30863 ft 424 kts 184°
2026-05-03 22:45 49.85592 8.68365 31249 ft 423 kts 184°
2026-05-03 22:45 49.82608 8.68330 31571 ft 424 kts 183°
2026-05-03 22:45 49.79661 8.68297 31959 ft 422 kts 183°
2026-05-03 22:46 49.76733 8.68267 32417 ft 420 kts 183°
2026-05-03 22:46 49.73817 8.68232 32845 ft 418 kts 184°
2026-05-03 22:46 49.70910 8.68194 33233 ft 417 kts 184°
2026-05-03 22:46 49.68016 8.68157 33597 ft 417 kts 184°
2026-05-03 22:47 49.65117 8.68123 33983 ft 415 kts 184°
2026-05-03 22:47 49.62265 8.68089 34284 ft 415 kts 184°
2026-05-03 22:47 49.59374 8.68055 34487 ft 417 kts 184°
2026-05-03 22:47 49.57413 8.68031 34640 ft 418 kts 184°
2026-05-03 22:48 49.53557 8.67985 34994 ft 418 kts 184°
2026-05-03 22:48 49.51597 8.67963 35171 ft 418 kts 184°
2026-05-03 22:48 49.48685 8.67929 35433 ft 418 kts 184°
2026-05-03 22:48 49.45779 8.67829 35685 ft 418 kts 188°
2026-05-03 22:49 49.42890 8.67342 35921 ft 417 kts 190°
2026-05-03 22:49 49.37106 8.66097 36022 ft 423 kts 191°
2026-05-03 22:50 49.31277 8.64845 36012 ft 420 kts 191°
2026-05-03 22:50 49.25534 8.63672 36021 ft 415 kts 190°
2026-05-03 22:51 49.19810 8.62521 36013 ft 415 kts 191°
2026-05-03 22:51 49.14083 8.61370 36025 ft 414 kts 191°
2026-05-03 22:52 49.08413 8.60232 36012 ft 407 kts 191°
2026-05-03 22:52 49.02810 8.59108 36032 ft 406 kts 191°
2026-05-03 22:53 48.97232 8.57876 36021 ft 404 kts 194°
2026-05-03 22:53 48.91742 8.56104 36033 ft 403 kts 195°
2026-05-03 22:54 48.86253 8.54240 36036 ft 404 kts 195°
2026-05-03 22:54 48.80753 8.52422 36029 ft 405 kts 195°
2026-05-03 22:55 48.75229 8.50632 36020 ft 408 kts 195°
2026-05-03 22:55 48.69664 8.48842 36035 ft 410 kts 195°
2026-05-03 22:56 48.64089 8.47059 36028 ft 408 kts 195°
2026-05-03 22:56 48.58549 8.45288 36041 ft 407 kts 195°
2026-05-03 22:57 48.53008 8.43518 36042 ft 408 kts 195°
2026-05-03 22:57 48.47448 8.41746 36044 ft 408 kts 195°
2026-05-03 22:58 48.41894 8.39975 36043 ft 408 kts 195°
2026-05-03 22:58 48.36344 8.38214 36049 ft 408 kts 195°
2026-05-03 22:59 48.30791 8.36458 36046 ft 408 kts 195°
2026-05-03 22:59 48.25239 8.34701 36053 ft 408 kts 195°
2026-05-03 23:00 48.19689 8.32962 36046 ft 408 kts 193°
2026-05-03 23:00 48.13985 8.32715 36051 ft 416 kts 176°
2026-05-03 23:01 48.08304 8.34119 36057 ft 417 kts 174°
2026-05-03 23:01 48.02590 8.35589 36058 ft 417 kts 174°
2026-05-03 23:02 47.96868 8.37004 36066 ft 417 kts 174°
2026-05-03 23:02 47.91146 8.38389 36055 ft 417 kts 174°
2026-05-03 23:03 47.85380 8.39776 36066 ft 417 kts 174°
2026-05-03 23:03 47.79688 8.41144 36070 ft 417 kts 174°
2026-05-03 23:04 47.73950 8.42519 36065 ft 418 kts 174°
2026-05-03 23:04 47.68209 8.43869 36055 ft 417 kts 176°
2026-05-03 23:05 47.62451 8.44783 36076 ft 416 kts 178°
2026-05-03 23:05 47.56668 8.45565 36076 ft 417 kts 178°
2026-05-03 23:06 47.50884 8.46382 36077 ft 418 kts 178°
2026-05-03 23:06 47.45085 8.47226 36069 ft 419 kts 178°
2026-05-03 23:07 47.39283 8.48073 36081 ft 419 kts 178°
2026-05-03 23:07 47.33470 8.48918 36085 ft 420 kts 178°
2026-05-03 23:08 47.27642 8.49766 36074 ft 421 kts 178°
2026-05-03 23:08 47.21845 8.50610 36070 ft 420 kts 178°
2026-05-03 23:09 47.16018 8.51457 36070 ft 417 kts 178°
2026-05-03 23:09 47.10196 8.52296 36080 ft 418 kts 178°
2026-05-03 23:10 47.04412 8.53144 35903 ft 416 kts 178°
2026-05-03 23:10 47.01548 8.53550 35546 ft 410 kts 179°
2026-05-03 23:10 46.98723 8.53955 35183 ft 407 kts 179°
2026-05-03 23:10 46.95911 8.54362 34804 ft 404 kts 179°
2026-05-03 23:11 46.93129 8.54766 34443 ft 401 kts 179°
2026-05-03 23:11 46.90367 8.55165 34080 ft 399 kts 179°
2026-05-03 23:11 46.87611 8.55560 33642 ft 397 kts 179°
2026-05-03 23:11 46.84870 8.55955 33241 ft 394 kts 178°
2026-05-03 23:12 46.82164 8.56345 32884 ft 388 kts 179°
2026-05-03 23:12 46.79460 8.56734 32513 ft 384 kts 178°
2026-05-03 23:12 46.76849 8.57108 32173 ft 380 kts 178°
2026-05-03 23:12 46.74179 8.57489 31757 ft 380 kts 178°
2026-05-03 23:13 46.71602 8.57857 31487 ft 376 kts 178°
2026-05-03 23:13 46.69004 8.58226 31118 ft 377 kts 178°
2026-05-03 23:13 46.66341 8.58600 30800 ft 393 kts 178°
2026-05-03 23:13 46.63541 8.58993 30416 ft 414 kts 178°
2026-05-03 23:14 46.60642 8.59403 30012 ft 421 kts 177°
2026-05-03 23:14 46.57723 8.59821 29675 ft 422 kts 177°
2026-05-03 23:14 46.54750 8.60246 29247 ft 426 kts 177°
2026-05-03 23:14 46.51790 8.60670 28830 ft 428 kts 177°
2026-05-03 23:15 46.48827 8.61093 28424 ft 429 kts 177°
2026-05-03 23:15 46.45850 8.61517 27980 ft 429 kts 177°
2026-05-03 23:15 46.42894 8.61937 27569 ft 427 kts 177°
2026-05-03 23:15 46.39925 8.62356 27125 ft 429 kts 177°
2026-05-03 23:16 46.36958 8.62775 26751 ft 428 kts 177°
2026-05-03 23:16 46.33986 8.63194 26318 ft 430 kts 177°
2026-05-03 23:16 46.31001 8.63614 25885 ft 432 kts 177°
2026-05-03 23:16 46.28006 8.64032 25391 ft 431 kts 178°
2026-05-03 23:17 46.25052 8.64384 25152 ft 419 kts 177°
2026-05-03 23:17 46.22214 8.64814 25052 ft 404 kts 177°
2026-05-03 23:17 46.19455 8.65235 24964 ft 390 kts 177°
2026-05-03 23:17 46.16809 8.65617 24885 ft 376 kts 178°
2026-05-03 23:18 46.14245 8.65979 24820 ft 364 kts 177°
2026-05-03 23:18 46.11816 8.66848 24713 ft 360 kts 157°
2026-05-03 23:18 46.09754 8.68855 24567 ft 358 kts 140°
2026-05-03 23:18 46.08188 8.71642 24241 ft 361 kts 125°
2026-05-03 23:19 46.06887 8.74743 23885 ft 362 kts 123°
2026-05-03 23:19 46.05627 8.77891 23474 ft 363 kts 122°
2026-05-03 23:19 46.04374 8.81046 23086 ft 362 kts 122°
2026-05-03 23:19 46.03128 8.84159 22782 ft 358 kts 123°
2026-05-03 23:20 46.01880 8.87249 22409 ft 356 kts 123°
2026-05-03 23:20 46.00616 8.90352 22001 ft 355 kts 123°
2026-05-03 23:20 45.99363 8.93407 21679 ft 351 kts 123°
2026-05-03 23:20 45.98135 8.96394 21257 ft 344 kts 123°
2026-05-03 23:21 45.96917 8.99350 20714 ft 343 kts 123°
2026-05-03 23:21 45.95701 9.02291 20167 ft 341 kts 124°
2026-05-03 23:21 45.94493 9.05210 19665 ft 339 kts 124°
2026-05-03 23:21 45.93297 9.08097 19203 ft 334 kts 124°
2026-05-03 23:22 45.90937 9.13786 18164 ft 331 kts 123°
2026-05-03 23:22 45.89766 9.16606 17690 ft 326 kts 124°
2026-05-03 23:22 45.88612 9.19381 17183 ft 322 kts 124°
2026-05-03 23:23 45.87467 9.22131 16675 ft 319 kts 124°
2026-05-03 23:23 45.86331 9.24857 16163 ft 317 kts 124°
2026-05-03 23:23 45.85205 9.27556 15680 ft 316 kts 124°
2026-05-03 23:23 45.84084 9.30243 15233 ft 312 kts 124°
2026-05-03 23:24 45.83349 9.32003 14916 ft 310 kts 124°
2026-05-03 23:24 45.81876 9.35527 14279 ft 307 kts 124°
2026-05-03 23:24 45.81151 9.37257 13997 ft 304 kts 124°
2026-05-03 23:24 45.80064 9.39849 13548 ft 301 kts 124°
2026-05-03 23:25 45.78982 9.42429 13184 ft 294 kts 124°
2026-05-03 23:25 45.77941 9.44908 12868 ft 287 kts 124°
2026-05-03 23:25 45.76924 9.47326 12562 ft 280 kts 124°
2026-05-03 23:25 45.75940 9.49660 12314 ft 276 kts 124°
2026-05-03 23:26 45.74926 9.52062 12032 ft 281 kts 124°
2026-05-03 23:26 45.73743 9.54301 11680 ft 283 kts 140°
2026-05-03 23:26 45.72248 9.56124 11318 ft 283 kts 143°
2026-05-03 23:26 45.70724 9.57915 11011 ft 283 kts 143°
2026-05-03 23:27 45.69217 9.59708 10791 ft 280 kts 143°
2026-05-03 23:27 45.67739 9.61491 10557 ft 277 kts 142°
2026-05-03 23:27 45.66276 9.63272 10278 ft 276 kts 142°
2026-05-03 23:27 45.64820 9.65056 9997 ft 275 kts 142°
2026-05-03 23:28 45.63382 9.66826 9602 ft 272 kts 141°
2026-05-03 23:28 45.61947 9.68593 9148 ft 272 kts 141°
2026-05-03 23:28 45.60505 9.70373 8742 ft 270 kts 141°
2026-05-03 23:28 45.59086 9.72124 8338 ft 268 kts 141°
2026-05-03 23:29 45.57683 9.73857 7947 ft 267 kts 140°
2026-05-03 23:29 45.56279 9.75588 7545 ft 265 kts 140°
2026-05-03 23:29 45.54897 9.77294 7288 ft 258 kts 140°
2026-05-03 23:29 45.53575 9.78959 7106 ft 249 kts 135°
2026-05-03 23:30 45.52734 9.81090 6867 ft 251 kts 108°
2026-05-03 23:30 45.52297 9.83500 6630 ft 251 kts 107°
2026-05-03 23:30 45.51855 9.85900 6396 ft 249 kts 107°
2026-05-03 23:30 45.51416 9.88259 6275 ft 243 kts 107°
2026-05-03 23:31 45.50986 9.90556 6160 ft 236 kts 107°
2026-05-03 23:31 45.50857 9.92856 6022 ft 234 kts 77°
2026-05-03 23:31 45.51619 9.94849 5875 ft 234 kts 45°
2026-05-03 23:31 45.53021 9.96019 5614 ft 237 kts 14°
2026-05-03 23:32 45.54648 9.96238 5343 ft 238 kts 358°
2026-05-03 23:32 45.56319 9.96162 5034 ft 241 kts 356°
2026-05-03 23:32 45.58002 9.96041 4720 ft 244 kts 356°
2026-05-03 23:32 45.59707 9.95929 4396 ft 246 kts 356°
2026-05-03 23:33 45.61420 9.95732 4041 ft 248 kts 344°
2026-05-03 23:33 45.62825 9.94462 3801 ft 238 kts 306°
2026-05-03 23:33 45.63353 9.92313 3533 ft 229 kts 269°
2026-05-03 23:33 45.63339 9.90072 3241 ft 225 kts 277°
2026-05-03 23:34 45.63650 9.87915 2982 ft 218 kts 283°
2026-05-03 23:34 45.63993 9.85850 2694 ft 208 kts 284°
2026-05-03 23:34 45.64340 9.83930 2418 ft 193 kts 285°
2026-05-03 23:34 45.64671 9.82138 2171 ft 181 kts 285°
2026-05-03 23:35 45.64984 9.80439 1943 ft 170 kts 285°
2026-05-03 23:35 45.65264 9.78907 1734 ft 150 kts 284°
2026-05-03 23:35 45.65491 9.77533 1565 ft 138 kts 287°
2026-05-03 23:35 45.65740 9.76212 1374 ft 139 kts 289°
2026-05-03 23:36 45.66004 9.74881 1170 ft 138 kts 285°
2026-05-03 23:36 45.66241 9.73578 992 ft 135 kts 286°
2026-05-03 23:36 45.66486 9.72285 850 ft 132 kts 284°
2026-05-03 23:36 45.66705 9.71113 788 ft 112 kts 286°
2026-05-03 23:37 45.66868 9.70228 786 ft 70 kts 285°
2026-05-03 23:37 45.66959 9.69757 786 ft 35 kts 285°
2026-05-03 23:37 45.67023 9.69433 786 ft 30 kts 286°
2026-05-03 23:37 45.67064 9.69169 786 ft 26 kts 272°
2026-05-03 23:38 45.66993 9.68994 786 ft 15 kts 197°
2026-05-03 23:38 45.66916 9.69056 786 ft 15 kts 104°
2026-05-03 23:38 45.66892 9.69195 786 ft 14 kts 103°
2026-05-03 23:38 45.66869 9.69319 786 ft 10 kts 106°
2026-05-03 23:39 45.66850 9.69412 786 ft 10 kts 106°
2026-05-03 23:39 45.66832 9.69502 786 ft 9 kts 103°
2026-05-03 23:39 45.66823 9.69571 786 ft 6 kts 103°
2026-05-03 23:39 45.66814 9.69628 786 ft 6 kts 103°
2026-05-03 23:40 45.66802 9.69683 786 ft 6 kts 112°
2026-05-03 23:40 45.66775 9.69723 786 ft 6 kts 159°
2026-05-03 23:40 45.66756 9.69703 786 ft 3 kts 225°
2026-05-03 23:40 45.66732 9.69686 786 ft 5 kts 199°
2026-05-03 23:41 45.66712 9.69678 786 ft 1 kts 194°
2026-05-03 23:41 45.66707 9.69676 786 ft 0 kts 194°
2026-05-03 23:41 45.66705 9.69675 786 ft 0 kts 194°
2026-05-03 23:41 45.66704 9.69675 786 ft 0 kts 194°
2026-05-03 23:42 45.66703 9.69674 786 ft 0 kts 194°